Dewpoint
38 40 40 41 42 43 43 44 44 43 43 43 43 43 44 44 44 41 36 40 35 32 30 35 36 40 39 39 36 30 23 25 23 20 18 18 16 21 15 17 18 18 16 17 18 14 -0 20 16 12 15 18 19 22
39 40 41 42 43 43 44 44 44 43 43 43 43 43 44 44 44 42 36 41 40 33 30 39 39 40 40 40 37 27 27 23 24 21 22 21 18 21 19 12 22 12 16 15 17 13 19 22 16 16 20 17 17 18
40 40 42 43 44 45 45 45 44 44 44 44 44 43 43 44 45 42 38 40 38 35 31 31 28 31 37 40 40 29 29 29 29 32 25 23 15 21 15 15 19 21 23 18 18 14 20 22 23 24 20 16 18 20
40 40 42 44 44 44 45 45 44 44 44 44 44 43 44 44 44 42 39 40 35 33 27 27 36 34 29 31 36 37 32 37 35 32 26 24 18 23 16 17 17 20 22 19 20 20 23 25 24 24 23 22 20 24
42 43 43 44 44 44 44 45 45 44 44 44 44 44 44 44 44 42 42 40 37 30 28 31 34 35 42 42 39 35 35 33 31 27 25 22 28 22 25 22 18 23 20 17 12 18 15 16 26 27 23 22 20 22
43 44 44 44 44 44 44 44 44 45 44 44 44 44 44 44 43 41 36 41 39 42 33 30 37 42 39 36 36 34 34 33 31 27 26 27 30 24 21 19 22 21 23 20 15 20 22 23 26 27 24 23 21 23
41 43 44 44 44 44 43 43 43 44 44 44 44 44 45 44 43 38 35 39 41 40 34 29 33 41 39 37 38 35 34 32 30 27 25 25 27 26 22 19 19 23 22 23 21 23 21 25 21 28 26 23 23 23
41 43 43 42 42 42 43 42 43 44 44 44 44 43 44 43 43 39 42 42 41 37 37 31 31 38 41 36 34 36 31 30 29 27 28 24 26 24 21 21 22 20 22 24 23 23 20 21 25 28 29 24 24 22
43 43 42 44 44 44 43 43 44 44 44 44 43 44 44 42 38 40 43 41 41 35 29 32 31 31 41 36 33 31 31 28 29 23 24 25 22 21 22 22 21 21 21 21 25 24 24 22 22 25 29 27 23 23
42 43 44 44 44 44 43 44 44 44 44 43 43 39 33 39 44 42 37 34 34 35 37 34 37 34 39 35 31 30 29 27 25 24 27 23 22 23 23 23 22 22 23 21 23 24 24 23 22 24 25 26 27 26
44 44 44 44 45 45 44 44 45 44 44 41 36 32 39 41 37 34 29 29 31 31 36 32 35 36 37 33 29 30 27 26 23 24 23 23 23 25 25 24 24 26 25 23 19 22 26 24 23 23 24 25 26 26
44 45 45 45 45 44 43 44 44 43 40 37 37 40 39 35 32 28 27 30 29 31 36 31 31 36 33 32 28 28 26 26 23 27 23 22 25 25 25 26 26 26 27 25 24 20 21 26 26 24 23 23 25 26
44 44 44 44 44 44 44 44 42 41 39 37 35 32 32 30 26 24 22 28 29 36 35 34 35 35 33 34 32 27 25 24 27 24 22 23 24 24 26 27 27 29 29 27 25 24 22 21 26 26 24 23 23 26
44 44 44 44 44 44 44 42 41 38 35 32 31 27 25 25 27 29 23 24 35 34 35 35 34 36 34 29 27 24 25 26 23 21 21 22 23 23 26 27 27 27 29 28 27 25 22 21 21 26 26 25 23 24
43 43 44 43 43 42 42 41 39 39 38 31 33 19 28 30 32 33 32 34 34 35 34 33 31 30 27 25 25 25 23 21 22 20 20 20 22 24 27 26 27 28 28 28 28 25 23 23 23 23 26 26 26 26
43 43 43 43 42 41 39 40 40 40 37 35 33 32 33 34 33 33 34 33 34 33 32 30 30 27 23 25 22 20 20 18 18 21 21 21 23 25 25 26 27 28 28 28 27 25 24 24 23 23 27 27 26 26
43 41 43 42 40 42 40 39 37 35 33 32 32 33 33 33 34 33 34 33 34 32 29 25 30 31 28 20 19 22 19 18 20 22 23 24 24 25 26 27 27 27 28 29 27 25 25 26 27 26 24 27 28 28
40 43 43 43 41 38 38 38 34 33 31 34 31 33 33 33 34 34 34 34 32 31 29 27 24 22 22 19 18 20 22 25 25 23 26 30 29 29 29 28 28 29 28 29 28 26 27 26 24 23 25 28 28 28
41 43 43 41 39 36 34 35 35 31 32 33 33 34 34 35 35 34 33 33 31 30 26 24 20 18 19 21 18 19 24 24 22 28 30 30 31 30 30 30 30 30 30 30 29 28 28 27 25 27 28 28 26 28
43 43 41 39 37 34 32 33 37 32 32 33 35 34 34 34 34 33 31 29 27 25 22 20 20 22 21 23 26 26 27 28 29 28 28 31 32 31 31 30 31 32 32 32 31 31 30 30 30 29 29 28 27 27
42 41 40 38 36 35 33 33 32 34 33 33 34 35 33 34 32 31 30 32 27 23 21 25 27 30 33 34 32 31 30 31 30 29 28 29 32 32 32 32 33 33 31 30 30 30 29 27 29 30 29 28 28 28
40 38 37 37 34 32 32 33 32 34 33 33 33 35 34 33 32 31 32 29 25 26 28 31 33 33 34 33 33 32 31 30 30 31 31 32 32 31 31 31 32 31 30 30 30 29 29 30 31 30 30 28 29 29
37 36 34 33 32 31 31 32 31 33 32 32 33 32 32 31 31 31 28 28 29 30 32 34 34 35 35 34 33 32 31 29 30 31 32 31 32 31 31 31 31 30 30 30 31 30 30 30 30 30 29 29 29 28
36 33 31 29 30 28 31 29 30 30 32 31 30 28 28 29 29 28 27 27 28 31 32 33 34 33 33 33 32 32 31 31 30 32 32 31 30 31 31 31 31 31 31 32 31 31 30 30 30 30 29 29 28 28
32 29 28 25 28 27 26 26 25 24 26 28 28 27 27 28 26 25 25 26 28 30 31 32 32 32 31 31 32 33 33 31 29 29 31 31 30 31 31 31 31 31 31 31 31 30 30 30 30 30 30 29 29 28
25 26 26 25 26 26 25 22 22 22 24 26 27 28 28 24 26 26 24 26 28 30 31 28 27 28 27 29 30 31 32 32 32 30 32 31 31 30 30 30 30 31 32 31 30 30 30 31 31 31 31 32 32 31
22 24 27 28 27 26 24 23 23 22 23 25 26 25 23 20 19 22 27 29 30 31 32 32 29 26 26 28 29 31 33 32 30 29 32 33 33 33 31 30 29 31 32 32 31 31 31 31 32 32 32 33 33 33
26 27 23 22 22 23 21 20 20 20 23 26 24 20 20 20 17 24 28 32 32 32 32 33 32 30 29 30 31 32 33 33 35 35 34 34 34 34 34 33 33 32 32 32 32 32 32 32 32 33 33 33 33 34
25 28 27 23 22 25 24 21 22 26 27 22 18 18 21 28 31 31 32 32 32 31 31 31 31 32 32 32 32 32 33 34 31 30 28 28 29 33 35 34 34 33 33 33 34 35 34 33 33 34 34 34 34 35
25 27 24 23 22 22 24 27 27 28 28 27 26 27 29 29 30 30 31 32 32 32 32 32 33 32 31 30 32 33 34 33 32 30 28 28 30 31 33 35 35 35 33 34 34 34 35 35 35 35 35 34 34 34
23 25 24 24 23 25 25 27 25 24 22 24 24 25 25 27 29 30 29 29 30 33 34 33 34 34 33 33 33 32 32 31 34 33 31 31 31 32 32 32 32 33 34 34 34 34 34 34 34 34 34 34 34 34
20 19 22 21 22 21 22 21 21 19 19 19 19 19 19 18 20 25 26 27 27 26 26 25 21 22 27 29 28 28 27 27 29 31 32 32 32 34 33 33 32 33 34 34 34 34 34 34 34 34 34 34 34 34
11 9 7 9 16 18 18 18 17 15 18 20 21 20 20 18 20 21 25 26 26 25 25 25 25 25 25 25 26 27 27 28 28 29 31 31 31 31 31 32 32 32 32 32 33 34 34 34 34 34 34 34 34 33
Wind_Speed
41 40 39 34 31 30 27 27 30 32 33 35 38 39 39 39 40 32 20 10 13 3 11 4 4 1 12 15 15 10 12 6 2 6 6 5 5 9 6 9 9 13 14 8 6 4 14 10 12 10 5 1 4 9
41 38 33 31 30 29 28 26 28 28 31 35 37 38 39 39 41 36 14 5 6 7 5 5 12 11 9 10 14 10 9 13 13 8 3 6 5 6 10 10 6 12 11 11 18 11 6 12 5 10 3 5 5 9
37 34 31 30 29 28 29 29 29 29 30 33 35 37 39 39 41 37 9 12 7 4 16 16 18 12 15 16 6 12 5 6 6 3 9 5 4 8 11 9 9 8 9 5 4 10 25 15 15 9 6 5 7 7
35 34 31 30 29 30 31 31 31 30 31 33 35 35 37 38 39 36 12 11 15 6 7 11 13 13 22 24 16 13 15 8 6 3 5 5 5 8 9 3 10 6 17 12 9 18 11 18 23 20 16 7 8 11
35 32 32 31 30 30 31 32 33 33 32 34 35 36 36 38 39 27 10 14 19 11 7 8 9 12 13 15 14 16 14 9 3 4 3 6 6 8 3 4 8 12 12 16 17 15 10 6 17 22 22 17 16 18
29 29 31 32 33 34 35 36 34 35 35 34 37 37 37 39 42 15 6 13 18 4 4 7 9 7 4 15 20 22 19 10 4 4 3 3 2 6 10 9 9 22 18 21 19 11 14 2 2 19 24 21 19 22
29 29 32 34 37 39 40 39 40 38 39 38 39 39 38 42 29 15 6 9 19 7 3 5 7 4 4 14 4 6 5 4 6 6 4 3 4 7 4 18 6 17 27 17 11 9 6 9 7 16 19 23 23 21
32 32 34 37 41 44 45 44 44 44 43 43 42 39 39 43 20 5 4 34 25 10 1 4 6 3 1 8 8 2 6 4 4 6 5 6 5 3 12 12 15 16 16 18 23 21 10 13 11 10 14 18 20 21
33 34 36 38 41 44 46 45 46 49 48 46 41 38 30 23 12 9 21 19 8 5 7 6 6 7 3 6 7 4 5 5 1 4 6 9 8 14 14 14 17 22 17 12 18 21 14 12 16 15 16 18 23 23
33 31 34 35 38 41 48 48 49 53 52 49 37 16 7 18 36 19 8 5 3 4 6 7 7 6 10 12 4 7 3 7 7 8 6 9 13 22 18 15 15 13 17 10 10 15 20 19 18 18 21 22 25 26
25 30 30 32 40 49 53 52 57 62 57 20 9 5 17 41 9 4 8 8 9 10 10 11 12 4 5 16 11 4 7 7 6 8 11 6 21 26 20 30 25 23 20 22 19 15 21 21 25 21 19 21 21 20
6 13 15 32 51 59 58 57 67 32 17 15 21 22 7 7 4 8 11 7 9 12 11 25 23 14 5 8 6 2 5 6 8 11 8 8 17 13 21 32 32 26 25 26 22 22 17 20 21 25 23 23 21 21
17 27 34 40 55 57 62 64 43 54 50 33 11 5 8 6 8 14 16 8 9 11 12 20 22 14 7 7 5 4 6 7 14 8 7 14 9 17 22 15 13 14 21 23 27 23 20 19 15 19 24 20 21 21
28 37 44 50 58 63 54 58 56 44 29 9 8 9 9 8 10 16 33 30 12 9 31 33 23 13 7 5 5 5 3 8 7 7 11 8 24 22 16 17 13 17 19 21 22 20 19 20 20 17 18 21 23 22
36 43 47 56 48 53 57 48 40 21 4 7 7 7 12 11 7 10 14 15 8 28 34 28 10 6 6 7 3 7 5 8 11 10 7 15 14 21 20 14 15 14 16 16 17 20 19 16 16 18 14 18 20 19
43 44 40 42 48 47 37 22 11 4 4 5 8 9 8 16 9 13 17 19 30 30 26 8 6 7 4 9 10 11 11 10 8 11 15 9 17 22 21 15 13 13 15 14 16 17 15 15 17 16 12 16 20 22
24 20 39 40 39 25 18 9 5 5 6 5 6 5 10 11 20 21 28 36 36 36 23 9 8 12 10 7 8 9 10 7 10 10 10 16 21 24 20 16 13 12 12 14 16 17 15 12 14 15 16 14 15 16
24 39 37 35 26 15 6 8 6 6 9 4 3 8 5 6 20 21 28 31 33 21 17 10 11 9 9 12 7 9 13 4 4 8 12 11 15 18 18 17 13 12 11 13 16 17 17 19 19 17 13 15 14 13
36 33 33 26 12 8 5 2 3 5 5 1 3 5 5 14 12 15 25 20 7 8 14 5 5 9 8 9 19 18 12 11 12 10 7 10 17 18 15 14 13 10 11 12 15 18 17 16 17 17 16 17 16 15
33 31 26 19 8 5 2 2 2 3 2 3 5 2 10 13 13 18 12 6 6 5 2 4 5 6 7 6 9 7 14 20 22 19 13 10 11 15 15 15 12 12 12 11 12 13 13 10 8 14 16 19 18 18
30 17 15 9 5 8 2 2 2 4 2 5 2 5 7 9 14 11 4 6 4 4 4 3 2 3 5 2 2 9 18 20 20 12 21 19 13 15 14 11 13 13 12 14 15 13 15 17 15 15 16 16 13 15
10 15 7 7 5 1 1 1 2 2 3 2 4 6 8 11 9 4 2 3 1 1 2 2 3 3 4 5 8 11 18 17 13 16 15 20 16 16 15 14 14 12 11 13 14 16 14 9 12 13 14 13 10 10
13 8 6 3 3 3 1 3 1 2 4 3 4 5 5 4 4 2 3 2 1 1 1 6 7 9 15 14 20 17 14 18 18 18 18 15 14 14 15 13 12 15 13 11 9 12 13 12 13 14 12 13 13 10
8 5 3 4 2 3 3 3 2 4 4 4 5 5 4 4 2 4 3 1 0 1 5 13 14 17 16 15 15 13 9 13 16 12 12 18 15 10 11 12 10 9 8 11 12 11 12 13 13 14 15 16 16 16
7 2 2 3 1 5 1 2 3 4 5 3 5 3 3 3 4 2 3 3 6 8 10 12 12 16 20 12 10 8 5 14 18 16 7 9 12 11 9 6 4 5 7 12 11 13 12 12 13 15 16 17 18 18
1 2 2 4 6 5 7 4 4 6 7 5 4 6 3 4 3 4 6 9 9 12 15 17 17 14 14 10 14 10 9 8 11 11 10 12 14 16 15 13 11 8 10 9 15 16 15 14 15 17 16 15 15 16
4 1 1 1 3 4 5 4 2 6 5 5 7 7 6 5 7 4 3 2 2 3 9 14 13 13 15 12 7 7 10 9 5 5 5 12 9 7 12 14 13 8 12 15 15 15 19 18 17 16 15 12 14 17
3 3 3 3 3 2 5 4 3 3 4 4 7 4 6 6 3 1 2 4 4 1 7 10 10 12 12 10 11 14 12 10 12 13 15 11 6 3 5 4 3 4 7 13 15 14 16 17 17 16 15 17 15 15
5 6 3 7 5 7 7 4 3 2 2 5 7 5 4 3 4 5 6 5 4 12 17 17 11 11 14 13 12 8 14 14 10 6 5 4 2 1 3 5 5 4 6 7 8 9 11 12 13 13 12 11 9 9
6 5 3 5 5 5 5 4 3 2 3 3 4 9 9 8 12 11 9 11 16 15 12 13 10 11 11 10 9 7 3 4 3 4 4 3 3 1 3 4 4 5 6 7 8 7 6 7 6 8 10 10 10 9
6 4 5 6 5 5 6 3 2 2 5 10 12 17 12 5 7 14 22 17 11 14 16 16 14 10 12 9 7 5 5 2 2 2 2 4 4 2 1 1 1 4 7 9 10 10 11 11 12 12 13 14 14 14
9 8 4 5 4 7 8 7 6 8 9 11 11 6 4 6 8 12 23 21 20 22 18 18 18 15 10 6 5 5 7 5 5 3 2 1 1 1 1 1 1 2 5 7 9 10 12 12 12 13 14 15 15 15
5 8 7 4 6 6 10 6 7 5 11 8 10 8 7 6 8 9 12 19 16 18 17 16 12 9 7 7 9 10 7 6 4 3 1 1 1 3 3 4 5 5 6 8 10 11 13 14 14 14 14 14 14 14
Wind_Direction
278 275 270 265 259 250 246 229 220 214 209 204 202 201 198 194 191 186 198 190 191 239 272 290 336 340 198 186 170 170 141 203 190 158 148 161 141 181 147 169 173 170 166 182 169 215 265 176 137 183 238 233 159 154
277 272 266 260 251 241 234 219 209 207 201 199 199 196 194 191 188 183 192 156 159 222 252 319 284 266 247 218 182 182 169 158 193 119 134 131 138 161 161 198 184 192 188 187 193 213 237 208 197 214 194 179 171 155
273 270 259 251 245 233 220 212 208 202 198 195 193 194 192 189 186 184 156 150 139 240 280 272 261 269 235 249 254 164 242 173 192 155 147 148 159 155 175 217 177 221 182 220 187 247 240 241 237 242 219 223 166 160
270 264 254 245 234 222 214 207 204 200 196 191 189 190 188 185 183 179 163 155 170 150 239 270 256 244 241 252 253 264 141 114 104 98 124 148 161 196 193 165 193 186 163 203 252 271 273 255 231 225 220 211 158 155
263 252 243 235 226 218 212 206 201 197 193 187 185 181 184 180 178 173 131 171 182 184 216 271 270 253 223 226 221 218 184 135 199 173 147 173 136 147 122 136 210 188 180 190 222 218 207 242 224 200 197 193 182 165
256 242 232 228 226 220 211 206 202 192 190 184 180 178 180 173 170 152 133 193 199 97 338 310 322 283 229 201 194 185 171 166 152 147 174 168 167 178 176 216 238 202 204 203 222 203 207 254 212 191 190 190 185 181
259 252 235 226 221 217 212 208 201 192 184 179 176 174 175 170 163 169 187 154 165 121 220 276 286 276 201 145 117 135 91 126 164 165 198 146 190 179 196 241 221 215 224 225 224 156 202 208 216 189 192 190 185 188
263 247 238 236 230 223 216 211 200 188 177 172 172 171 170 165 139 133 360 147 141 121 202 254 253 260 262 154 151 356 129 86 48 143 155 190 150 175 248 240 231 227 228 221 219 212 226 205 198 181 184 173 179 191
260 253 250 237 222 211 202 196 189 178 168 162 162 161 158 169 162 129 134 125 61 142 186 233 202 178 233 106 108 68 73 166 32 169 204 185 187 217 228 216 223 222 212 222 217 215 213 203 202 186 176 185 195 200
266 262 245 231 209 194 184 179 173 161 154 148 150 164 176 164 126 123 77 110 151 244 239 242 183 197 179 143 126 120 101 157 184 215 144 221 240 235 230 232 243 239 221 195 185 208 210 215 209 196 192 191 198 203
270 252 229 218 194 177 169 163 161 145 145 151 139 129 131 116 105 120 143 166 191 202 206 201 179 192 224 167 135 153 154 161 197 205 196 234 250 240 223 237 237 235 219 214 220 222 206 207 204 204 205 204 201 191
283 158 159 175 167 158 152 157 146 140 138 117 112 118 113 104 130 147 169 179 208 212 190 189 189 183 231 143 133 165 131 155 209 147 185 243 245 217 219 225 227 225 211 210 216 223 214 209 207 207 206 204 199 198
116 124 124 124 135 142 146 143 128 120 113 123 114 119 129 175 155 173 181 198 208 184 169 153 151 149 215 84 88 151 158 180 130 177 229 245 228 224 218 207 215 215 212 208 208 213 210 210 203 203 207 204 191 188
112 126 130 130 132 131 130 122 128 125 127 123 134 148 167 155 201 196 190 196 197 188 153 157 137 182 154 128 140 145 118 135 202 217 230 242 219 213 199 196 192 209 205 205 204 196 196 198 206 205 207 193 182 186
118 119 122 125 119 122 126 134 132 136 131 118 96 186 183 203 183 189 161 151 189 158 148 144 119 137 129 119 157 119 157 221 214 217 224 231 215 186 182 185 194 191 189 194 190 188 189 188 195 200 194 186 183 174
128 124 126 116 129 137 138 121 104 72 43 96 207 170 148 170 180 163 158 159 163 157 144 120 103 132 190 154 167 199 180 209 212 207 215 189 182 177 175 182 180 180 181 178 179 177 175 182 188 188 168 178 179 176
122 134 126 133 134 123 109 94 59 58 62 242 190 186 158 156 173 169 165 157 156 157 159 138 135 183 141 203 201 181 196 213 218 213 200 188 174 173 171 166 167 164 162 174 174 176 179 160 145 151 166 177 176 178
132 135 127 126 119 98 58 38 72 178 223 240 126 126 136 148 143 156 162 159 163 170 154 161 134 175 183 173 183 210 217 227 218 181 172 175 164 160 160 162 162 163 158 161 166 163 155 156 165 177 164 157 152 158
143 136 129 126 101 88 92 133 103 232 233 237 128 95 117 122 133 157 155 157 118 113 122 96 138 174 181 198 171 188 183 175 159 149 158 161 150 152 158 149 143 141 145 152 164 173 170 172 180 169 159 160 171 169
130 132 108 104 73 81 99 136 162 316 345 48 68 96 111 128 134 136 125 117 117 112 85 202 182 191 186 206 205 181 165 148 143 144 145 136 149 153 156 152 145 137 130 132 140 147 153 150 150 163 167 168 165 176
123 124 84 83 52 51 83 118 209 251 116 87 136 86 78 97 128 132 107 43 84 167 197 206 227 237 236 250 151 146 148 149 159 161 158 157 166 155 142 130 131 138 145 153 161 172 177 182 173 167 170 180 181 175
108 100 78 48 57 41 302 230 246 197 81 79 70 76 89 118 128 92 101 144 133 163 214 145 82 68 110 118 127 135 136 123 119 120 118 134 145 147 150 148 146 153 160 171 173 175 181 168 161 164 169 166 153 156
93 74 68 69 111 208 205 321 163 47 100 79 58 69 78 107 133 122 104 214 234 258 198 88 79 96 106 107 110 107 113 126 139 145 147 140 136 140 141 151 158 159 168 186 182 177 172 163 161 159 150 151 155 158
48 66 113 165 199 104 30 357 52 75 62 60 69 91 88 101 98 71 111 254 328 244 118 120 119 106 96 102 103 105 99 126 126 128 138 138 142 155 157 155 162 175 184 175 168 161 164 170 162 162 165 170 178 183
110 184 198 196 93 98 124 238 112 100 98 89 84 75 79 58 77 81 181 187 174 160 140 137 129 126 122 111 108 105 96 136 138 142 150 156 141 128 121 120 147 185 168 164 165 161 164 163 170 174 177 182 188 193
178 204 181 124 132 174 202 150 151 123 118 99 105 125 106 103 136 197 198 191 183 167 168 159 151 143 120 124 136 138 148 140 128 140 173 178 172 163 159 160 172 204 199 192 174 178 179 175 177 183 192 199 199 195
134 26 19 169 119 137 117 90 101 101 100 111 148 133 128 147 199 196 239 199 174 211 185 167 156 135 141 141 136 125 135 136 114 134 153 173 169 164 165 173 194 209 180 191 189 185 187 189 193 198 204 199 203 204
75 53 132 56 77 349 128 106 96 96 121 136 137 110 133 162 141 346 24 18 13 35 121 111 105 114 128 120 120 125 121 112 102 98 94 84 78 130 152 149 134 127 171 193 197 191 191 193 197 199 206 216 217 207
56 356 14 43 63 58 37 23 76 80 124 182 145 137 123 84 15 15 18 21 102 122 122 123 102 99 94 93 91 86 145 148 138 125 126 141 109 141 182 184 180 160 157 174 186 193 198 197 195 202 214 222 229 212
31 342 102 56 56 57 14 4 65 350 26 56 93 103 72 49 18 7 30 52 70 77 88 98 101 115 119 127 123 94 95 154 92 148 177 207 213 162 149 176 187 188 175 168 171 170 167 178 182 190 200 208 210 214
326 28 69 73 74 9 330 324 347 30 45 58 58 86 90 99 61 40 27 8 39 79 78 75 73 78 94 96 95 98 80 60 152 163 107 97 90 88 62 49 139 180 182 186 188 193 193 196 203 211 218 222 222 222
21 28 71 84 69 354 24 41 36 46 38 60 44 55 74 80 75 38 5 5 26 29 21 25 37 31 13 23 53 56 56 51 48 49 71 64 350 336 202 180 131 166 195 209 214 215 212 214 214 219 228 231 231 228
29 32 48 63 37 24 0 24 45 54 37 48 41 32 33 52 75 13 7 15 29 14 4 350 342 346 2 29 37 38 30 10 347 340 334 10 301 282 268 257 222 211 232 237 232 222 220 219 222 224 225 231 236 238